Theta_e
307 307 307 307 307 307 307 307 307 307 307 307 306 306 307 307 307 307 307 308 308 308 308 309 309 309 309 309 310 310 310 310 311 314 316 317 315 315 317 316 314 313 314 314 314 314 315 315 315 314 317 319 318 320 319 320 331 337 333 324 324 330 330 331 326 319 318 319 320 319 317 316 317 318 316 315 317 319 319 318 317 315 315 316 315 313 314 317
308 308 307 307 307 308 308 308 308 307 307 307 307 307 307 307 307 308 307 308 308 308 309 309 309 309 309 309 310 310 310 311 312 316 318 318 317 317 317 316 313 313 314 314 314 315 316 317 314 315 320 320 319 319 320 321 323 333 332 323 330 338 333 330 324 318 318 317 317 318 318 316 316 316 315 315 318 319 317 317 315 316 316 315 314 313 314 317
309 309 308 308 308 308 309 309 309 308 308 308 308 308 308 308 308 308 308 308 309 308 308 308 308 309 309 309 309 309 311 313 315 318 318 317 316 315 316 315 314 313 313 314 315 314 316 317 313 316 320 318 321 321 323 322 320 330 329 324 338 341 330 327 322 319 317 315 317 319 317 316 317 316 315 315 317 318 317 317 315 316 316 316 317 312 314 319
309 310 309 308 308 308 308 309 309 309 308 308 309 309 309 309 309 309 309 309 308 308 308 309 309 309 309 310 310 310 313 316 317 318 316 314 314 314 315 314 314 313 313 314 315 315 315 315 313 317 319 318 323 322 324 325 320 324 324 327 340 332 324 326 325 323 318 316 317 318 318 317 317 316 315 315 317 318 316 316 316 316 315 316 317 312 313 318
309 311 310 309 309 309 309 309 309 309 309 309 310 310 310 309 309 310 310 310 310 310 310 311 311 311 312 312 312 313 316 318 317 316 314 314 314 314 314 314 314 313 313 315 316 315 315 314 313 317 318 318 321 319 324 327 321 322 323 328 334 325 320 324 325 322 317 317 317 317 317 316 317 316 315 316 316 316 316 316 316 316 316 315 315 311 312 317
312 312 312 311 310 310 310 310 309 310 310 311 311 311 311 311 310 311 311 311 312 312 313 312 313 313 313 314 315 314 314 315 315 316 315 314 314 314 314 314 314 313 313 315 316 314 315 315 314 318 318 317 318 317 320 321 318 321 323 324 327 322 319 321 321 319 317 316 316 317 316 315 316 316 316 316 316 316 316 316 315 315 313 312 312 311 313 320
314 314 313 312 311 311 311 310 310 310 311 311 312 312 311 311 312 312 312 313 313 313 313 313 314 314 314 315 317 318 317 315 315 317 318 317 315 315 314 314 314 313 313 315 315 315 317 316 315 318 319 318 317 318 317 316 317 321 323 324 323 321 320 320 318 318 318 316 316 316 315 314 315 316 317 316 315 316 316 315 314 311 309 309 311 313 313 315
315 315 314 313 313 312 311 311 311 311 312 312 312 312 312 313 313 313 314 314 315 314 314 313 313 312 313 314 317 322 321 318 316 317 318 319 317 316 315 314 313 313 313 314 315 315 317 316 316 316 317 317 316 317 316 315 318 321 321 321 319 319 320 320 317 317 317 315 315 314 314 315 313 314 315 314 314 314 314 314 314 312 311 312 313 314 313 312
316 315 315 314 314 313 312 312 312 312 312 312 312 313 314 314 315 315 315 316 315 315 315 314 313 312 312 313 317 323 323 319 319 319 318 318 318 316 314 314 313 313 314 315 315 313 315 318 318 316 317 318 315 316 315 315 318 318 317 317 316 316 317 316 316 316 316 315 313 313 315 314 313 314 315 315 315 315 314 314 316 315 314 314 313 311 309 310
315 315 315 315 314 313 313 312 312 313 312 313 313 314 316 316 317 317 316 317 316 316 316 316 314 312 312 314 319 323 321 319 320 321 320 318 317 315 314 314 314 314 314 315 315 313 315 316 316 314 317 318 314 314 314 314 316 315 314 315 315 316 315 315 315 315 313 313 313 313 315 314 313 314 315 317 318 315 314 314 314 313 314 314 312 308 306 307
316 316 316 315 314 314 313 312 313 313 314 314 315 316 318 318 318 318 318 318 318 318 318 317 314 312 313 315 320 322 319 319 319 320 321 317 315 314 314 314 314 314 314 315 314 315 315 315 314 313 315 315 314 315 315 314 314 313 313 315 317 316 315 314 315 315 312 313 316 315 315 314 313 315 316 317 317 314 313 315 312 311 314 315 310 307 307 307
317 317 316 315 314 314 313 312 313 314 316 316 317 319 319 319 319 319 319 319 319 318 316 315 312 312 314 315 318 318 316 318 318 319 319 316 314 314 314 316 316 315 314 314 315 315 315 315 314 315 316 315 315 315 314 313 313 313 313 315 317 316 316 315 315 314 312 314 316 315 315 317 316 316 317 316 315 314 313 314 312 312 313 311 309 308 309 307
317 317 316 315 314 314 313 313 314 316 317 318 319 320 320 320 320 320 320 318 318 316 314 313 311 312 314 315 315 314 314 317 318 318 317 316 315 315 316 316 316 316 315 315 315 314 314 315 315 316 316 316 317 315 313 314 314 314 314 313 315 316 317 317 314 313 313 314 315 314 316 323 324 318 317 315 312 313 314 314 312 311 309 307 308 309 308 306
318 317 317 316 314 313 312 314 316 318 319 319 320 320 320 320 320 320 318 317 315 314 313 311 311 313 314 316 314 313 314 315 317 318 317 317 317 316 317 316 316 315 315 315 315 314 314 314 314 314 314 315 316 313 315 318 317 315 312 316 317 315 321 322 315 314 316 315 314 314 316 323 324 320 319 315 310 311 314 314 310 308 307 307 309 308 306 306
317 317 316 315 315 313 313 315 317 319 319 320 321 321 321 320 319 317 315 315 313 313 312 310 313 314 314 315 314 313 314 315 317 318 317 318 316 315 316 316 316 315 314 314 314 314 313 314 315 316 316 314 315 316 320 322 324 319 313 323 325 316 321 324 315 316 318 315 312 313 317 319 318 319 320 316 311 311 313 312 310 309 309 308 308 306 305 305
317 317 316 315 314 313 315 317 319 319 320 320 321 321 320 320 318 314 314 313 312 313 313 313 316 316 315 315 314 313 315 315 317 317 317 317 316 316 315 315 315 314 314 313 313 314 313 315 315 315 316 313 316 323 326 323 327 326 316 323 328 319 318 319 317 318 316 314 312 313 317 317 317 319 319 315 311 312 314 311 309 308 309 307 305 305 304 303
316 316 316 314 314 314 316 318 320 320 321 321 321 321 320 320 317 313 313 312 314 316 315 315 315 314 314 314 314 315 315 314 315 316 317 315 316 316 314 313 313 312 313 312 313 313 312 314 313 313 317 315 317 324 326 322 324 328 320 318 323 319 316 316 319 319 315 315 315 314 315 315 316 317 316 313 310 312 314 311 309 308 307 306 305 304 303 303
316 316 315 314 314 315 317 319 321 321 321 321 321 321 321 320 316 314 314 313 314 315 315 315 314 316 317 314 314 316 315 314 315 316 316 315 316 315 313 312 310 311 312 312 312 312 313 316 317 318 317 315 316 318 321 322 322 326 323 319 321 320 317 317 318 319 318 317 317 317 316 316 316 316 315 313 311 313 314 311 309 308 307 305 304 303 303 302
316 316 314 314 315 316 319 320 321 322 321 321 321 321 321 319 316 314 314 315 316 318 318 317 316 320 320 316 315 315 315 314 315 315 314 315 315 314 313 311 312 313 314 315 314 313 316 319 319 319 317 315 315 315 317 320 319 320 320 318 319 320 319 317 317 318 316 315 317 318 317 317 317 317 315 311 311 313 312 311 308 307 306 304 304 303 303 302
317 316 314 315 316 318 320 321 321 322 321 322 322 321 322 325 324 320 317 319 321 320 320 319 317 319 318 316 315 314 315 314 313 314 313 314 314 313 312 311 314 315 316 321 319 313 315 319 319 318 318 317 315 314 314 315 315 315 315 316 317 317 317 316 317 320 316 314 320 319 317 319 318 316 312 309 314 314 311 310 308 306 305 304 304 303 302 302
316 315 315 316 317 319 321 321 321 321 321 322 321 321 322 325 326 324 322 324 321 316 318 318 315 316 316 315 315 313 315 315 313 313 312 313 313 314 314 313 315 316 318 323 320 312 313 318 319 319 317 316 315 313 312 312 312 312 314 315 317 317 317 316 317 319 316 314 322 322 316 319 319 314 309 309 313 312 308 309 306 305 305 304 303 303 302 302
316 316 315 316 318 320 321 321 321 321 321 321 321 319 316 316 318 317 319 325 322 316 317 318 314 315 315 314 314 314 317 319 317 314 312 311 312 314 315 314 317 319 317 317 316 314 315 318 319 317 314 313 313 312 312 313 313 314 316 316 318 320 319 320 319 319 317 315 323 325 317 318 318 311 308 309 309 307 306 306 305 305 304 303 303 302 301 301
316 316 316 318 320 321 321 321 321 321 322 321 319 317 315 314 314 313 315 322 324 319 318 320 319 318 317 317 315 315 317 319 320 318 313 311 313 315 315 314 316 318 316 315 318 318 319 321 318 313 312 313 314 314 314 314 315 317 318 317 320 320 319 323 323 321 318 314 318 320 315 318 316 310 309 308 306 306 305 304 304 303 303 303 302 301 301 300
317 317 317 319 321 321 321 320 321 322 322 321 319 318 317 315 313 312 315 321 323 321 319 319 318 320 321 317 315 316 318 319 320 319 314 311 314 314 314 315 315 317 316 315 317 317 319 321 316 313 314 314 315 315 315 315 318 322 323 319 320 321 320 323 323 320 319 318 317 315 319 326 321 314 313 309 306 306 304 304 304 303 302 302 301 300 300 299
318 318 318 319 321 321 320 320 322 323 323 321 319 319 318 316 313 312 317 323 325 324 320 316 317 319 316 314 314 316 317 318 317 315 312 311 314 315 315 314 315 317 317 314 314 315 317 317 315 316 317 316 316 317 319 319 319 324 327 323 320 323 323 322 321 319 322 324 318 313 322 334 329 318 313 310 308 306 305 304 303 302 302 301 300 299 299 298
317 318 319 319 321 321 320 321 322 322 323 322 320 319 318 317 315 313 319 327 329 328 323 318 319 318 312 312 314 316 320 319 312 310 311 311 312 314 316 316 316 317 317 315 316 318 318 315 315 319 321 320 319 321 323 322 320 322 324 323 324 324 321 321 319 318 324 326 318 313 318 328 329 320 315 312 310 307 305 304 303 302 301 300 300 299 298 298
318 318 320 320 320 320 320 322 323 322 323 323 321 319 318 319 316 314 323 332 331 328 323 317 316 315 312 310 311 318 326 321 311 309 311 311 311 311 315 318 317 316 317 318 321 322 319 316 317 318 320 322 320 321 323 322 323 325 322 323 326 322 319 320 316 317 322 321 320 321 316 318 323 319 314 313 312 309 305 305 303 302 301 300 300 299 298 298
320 319 320 321 320 320 321 322 323 322 323 323 320 319 320 320 316 316 328 336 330 323 319 315 311 311 310 308 310 317 318 315 314 312 308 309 311 311 315 319 319 318 317 318 325 325 318 316 320 320 318 320 322 323 323 321 323 326 322 320 322 318 318 319 315 318 319 315 322 327 317 316 322 322 315 312 314 313 307 305 303 302 301 300 299 299 298 297
322 320 321 322 321 321 321 322 322 323 324 322 321 322 321 319 318 320 329 333 328 319 315 312 309 310 311 309 311 312 309 310 315 313 308 309 310 311 315 316 317 316 313 316 323 324 317 315 320 323 320 321 325 324 323 322 321 321 319 319 322 323 322 319 317 319 319 316 322 325 318 319 325 328 321 313 315 316 308 305 303 302 301 300 299 299 297 297
323 322 321 322 321 320 320 321 321 323 323 322 323 322 320 320 322 327 331 330 327 320 313 311 311 311 312 312 311 311 309 311 312 311 311 311 311 311 311 311 314 317 318 320 322 320 316 312 315 319 320 323 325 318 316 320 317 315 319 322 326 328 325 323 323 321 318 321 325 323 320 319 322 331 326 315 315 315 308 304 303 301 300 299 299 298 297 297
323 323 322 322 322 321 320 320 321 322 322 322 323 321 321 323 325 331 333 326 324 321 313 312 313 311 312 316 315 311 310 312 311 313 313 311 312 313 311 311 314 321 324 323 322 321 317 313 315 317 316 319 321 316 315 318 317 318 324 325 326 329 327 325 326 323 321 327 329 324 320 316 320 329 324 313 310 310 308 305 302 301 300 299 299 298 297 296
323 323 323 322 321 321 321 321 322 322 322 321 322 321 324 327 328 332 330 324 326 324 317 317 315 311 313 317 318 314 313 314 312 314 316 315 315 314 315 319 319 322 325 324 323 323 321 319 318 316 314 315 320 320 317 318 319 320 323 325 325 325 325 325 325 324 324 326 324 322 320 317 321 322 315 309 306 306 307 303 301 300 299 299 298 297 297 296
322 322 322 322 321 320 321 322 322 322 321 320 321 321 324 329 331 331 329 328 330 323 319 321 318 316 317 317 319 316 315 316 312 313 317 317 316 315 317 321 320 321 325 323 323 323 325 326 319 314 315 317 319 319 319 321 319 317 319 324 325 324 326 330 327 321 323 324 320 320 320 320 324 318 308 304 303 303 304 302 300 299 298 298 298 297 297 296
320 320 320 320 320 320 320 321 321 321 320 319 322 322 324 329 329 327 328 330 328 323 322 322 318 318 318 319 322 317 315 319 313 312 317 315 316 319 319 318 316 320 324 322 322 324 327 329 323 318 318 318 315 315 323 326 319 315 319 321 323 326 329 330 328 323 324 327 322 318 320 326 328 315 303 302 301 300 301 300 300 300 299 299 298 298 297 296
317 317 317 318 318 319 319 320 320 320 319 319 322 324 325 327 327 327 329 327 326 325 323 322 320 319 319 322 325 319 318 322 316 313 318 317 318 323 323 320 316 319 324 323 324 323 323 327 327 320 315 316 315 316 322 325 319 315 316 317 320 325 326 323 324 323 322 324 323 321 322 321 316 307 301 302 301 299 300 299 299 300 299 299 298 298 297 296
315 315 316 316 316 318 318 320 320 319 318 320 324 325 324 325 326 327 328 324 325 324 321 324 324 321 323 327 326 321 319 323 319 315 318 319 320 322 325 326 320 316 319 323 325 323 321 327 325 315 313 315 316 317 318 319 321 315 313 320 321 320 322 322 321 318 317 320 320 322 323 314 309 307 303 301 301 300 300 299 299 299 299 299 299 298 297 296
314 313 314 315 316 318 318 319 318 317 318 321 324 325 321 322 325 325 324 321 322 324 323 326 326 323 325 327 326 325 322 322 320 318 322 322 320 321 323 324 320 316 317 319 323 323 323 328 325 316 317 316 311 316 318 314 317 317 317 322 317 314 320 323 321 320 320 321 319 320 321 317 316 315 305 301 303 302 300 300 299 299 300 299 299 298 298 297
311 311 313 313 316 318 318 318 317 316 319 321 323 323 321 322 323 322 323 320 322 327 327 328 327 324 326 327 328 326 322 323 322 320 325 325 321 322 322 321 319 317 316 315 319 322 320 324 325 317 317 316 311 316 319 312 311 316 319 318 315 319 323 320 319 321 321 320 322 323 319 317 319 316 309 307 306 302 301 301 300 300 300 299 299 298 297 296
310 313 315 313 313 317 317 318 316 317 321 320 320 321 321 322 321 320 323 321 321 326 328 328 326 324 325 327 329 326 322 324 323 321 324 323 321 321 319 319 319 317 317 315 317 323 320 320 324 317 314 316 315 316 321 317 311 313 314 313 315 321 323 319 318 321 321 318 320 322 317 318 321 317 316 315 308 301 301 301 300 300 299 298 298 297 297 296
310 317 318 312 311 315 316 317 317 319 321 318 317 317 318 320 320 320 321 320 320 323 325 327 326 324 325 325 326 327 323 324 324 322 323 323 322 319 318 320 319 318 319 315 315 321 319 317 322 320 314 316 319 319 321 321 316 315 316 316 316 316 318 319 317 319 322 320 319 319 316 321 320 312 312 314 307 301 301 300 300 299 299 298 297 296 296 295
309 318 317 310 311 314 316 317 318 320 321 318 317 316 317 319 321 320 319 318 320 321 321 324 325 324 324 324 325 325 324 325 324 323 323 323 322 320 318 317 317 317 317 316 316 319 318 319 323 322 318 320 324 320 316 317 320 320 320 320 319 317 318 319 317 317 319 319 319 318 316 319 315 307 307 309 305 302 300 300 300 300 299 298 297 296 295 295
310 316 313 309 311 314 316 319 319 319 320 320 319 318 318 320 321 321 320 319 320 321 319 320 323 324 322 323 325 324 323 324 322 322 323 322 323 322 316 314 315 316 317 319 318 317 318 322 323 321 320 320 319 315 313 317 320 319 319 320 320 319 319 318 317 318 318 317 318 318 318 317 310 306 307 305 303 302 300 300 301 301 299 298 297 296 296 296
311 313 311 310 312 313 316 319 319 319 319 319 319 319 319 320 320 320 321 320 319 320 319 319 320 322 321 321 322 322 322 322 320 321 322 321 321 319 315 315 315 314 318 321 318 316 318 320 320 322 324 320 316 315 316 317 317 317 317 318 318 318 319 318 316 318 319 319 319 318 319 317 310 307 307 304 302 302 300 300 302 301 300 299 298 298 297 297
309 309 310 310 312 314 316 319 319 319 318 318 318 318 317 318 319 319 320 320 320 320 320 319 319 320 320 320 320 319 320 321 320 319 320 321 319 313 311 314 313 313 319 321 318 317 318 318 319 321 322 320 318 318 319 317 317 318 318 316 316 317 317 315 314 316 316 317 317 316 317 317 311 307 306 304 304 303 301 302 303 303 302 301 299 299 298 297
307 308 310 310 310 312 315 315 315 317 317 317 318 317 317 317 317 318 319 319 319 320 319 319 319 319 319 319 319 318 317 319 320 317 317 320 318 313 311 312 312 314 316 316 315 316 316 316 318 320 320 319 319 318 319 319 317 316 316 314 313 315 316 315 314 315 315 315 315 314 316 316 312 308 306 305 305 305 304 304 304 304 303 301 300 299 297 296
308 309 309 309 309 311 312 312 312 314 315 316 317 316 316 317 315 316 318 318 318 317 317 317 317 318 319 318 318 318 317 318 317 316 317 319 317 314 312 309 310 313 313 312 313 316 316 315 316 318 318 317 317 316 314 315 315 314 314 314 312 312 313 313 313 313 313 313 311 311 312 313 312 309 308 307 307 307 306 306 305 304 303 302 299 297 295 295
307 309 309 309 310 311 312 312 312 312 313 314 315 314 315 316 314 314 315 317 317 316 316 316 315 317 318 317 317 318 317 316 316 315 317 318 315 312 309 307 308 310 310 310 311 314 316 314 313 315 315 314 314 314 311 310 313 313 312 312 312 311 310 310 310 310 311 312 310 310 310 310 310 309 309 309 308 306 306 306 306 305 303 301 298 296 295 294
306 307 305 306 310 311 312 312 313 312 311 312 312 313 314 314 313 314 314 315 316 316 316 316 315 316 318 317 317 317 316 316 316 315 316 315 313 311 309 308 307 308 309 309 310 312 316 315 311 311 313 311 310 310 308 307 310 310 310 310 311 309 308 308 307 307 309 309 308 308 308 308 308 306 306 309 310 310 308 307 306 304 302 299 297 295 295 294
302 302 302 303 306 309 310 311 312 312 312 311 311 312 313 313 312 312 313 315 315 314 315 316 315 315 316 316 317 316 316 316 315 314 314 314 313 312 311 311 308 306 308 309 308 310 313 313 309 309 312 309 305 305 305 305 306 307 307 307 307 306 306 305 305 305 306 306 306 306 306 305 305 303 304 308 311 310 308 304 302 302 301 299 296 295 294 294
300 301 301 302 303 305 307 309 310 311 311 311 311 311 311 312 312 311 312 314 314 314 314 314 314 314 314 315 315 314 314 315 315 314 313 313 313 311 311 313 309 305 307 308 306 306 309 310 307 308 311 308 303 305 306 305 305 305 305 304 304 304 303 303 303 303 303 303 303 304 304 304 303 302 303 306 305 303 302 302 303 303 301 298 296 294 294 294
297 298 299 301 303 304 307 308 309 310 310 310 311 311 309 310 311 311 312 312 312 313 314 313 314 313 312 312 313 314 314 315 315 313 312 312 311 310 310 311 309 307 307 306 305 306 308 308 305 307 311 307 301 303 305 304 304 304 303 303 301 302 303 302 302 302 302 302 302 302 302 303 302 301 302 302 300 299 300 301 302 300 298 296 295 295 294 294
295 295 296 300 303 304 305 307 308 309 309 309 309 309 309 309 309 310 310 309 309 308 309 311 311 310 310 311 312 311 310 309 307 305 304 305 306 306 307 308 307 308 307 305 305 306 307 308 307 307 309 305 300 301 302 303 304 302 300 300 299 299 300 299 300 301 301 301 301 302 301 300 301 302 301 300 299 298 298 298 298 297 295 294 294 295 294 293
Wind_Speed
3 3 3 3 3 3 4 4 4 5 5 5 5 5 5 5 6 6 6 7 7 7 8 8 8 9 10 11 13 14 16 17 17 14 9 9 5 4 5 4 2 3 4 6 7 6 4 2 1 1 2 2 2 1 2 2 2 4 3 3 1 3 3 5 6 4 2 4 6 6 2 3 5 5 3 3 3 4 6 7 5 4 6 9 11 10 9 5
3 3 3 3 3 3 3 4 4 5 5 5 5 5 6 6 7 6 7 7 8 8 8 8 9 9 10 11 13 14 16 18 17 13 8 4 3 5 2 1 1 2 5 6 7 6 5 1 2 3 4 2 2 2 2 2 2 3 3 2 3 5 5 5 6 4 2 4 6 6 3 3 4 3 1 2 6 6 7 10 6 6 9 11 15 13 8 8
4 4 4 4 3 2 3 4 4 5 5 5 5 5 6 6 7 6 7 7 7 8 8 8 8 9 10 10 11 13 15 15 10 6 3 5 8 6 3 1 1 3 5 5 6 6 4 1 3 4 4 2 2 2 2 1 0 2 3 2 6 7 5 5 5 6 5 5 4 6 3 2 6 3 0 1 6 7 6 10 8 10 11 8 10 10 7 10
4 4 4 4 4 3 4 4 4 5 5 5 5 5 5 6 6 6 6 6 7 7 7 8 8 8 8 9 9 11 12 9 3 2 3 7 8 6 4 2 2 4 6 5 5 4 2 1 3 4 4 1 3 3 1 2 1 1 4 4 7 4 3 7 7 6 6 3 3 6 4 7 7 2 2 1 4 8 8 9 8 12 14 9 8 8 7 10
5 5 5 5 4 4 5 4 4 5 6 6 5 5 5 6 6 6 6 6 6 6 7 7 7 7 7 7 7 8 8 5 2 2 3 6 6 5 3 3 4 6 8 7 4 4 2 1 4 4 3 1 2 3 2 4 3 2 3 6 6 3 3 8 6 4 3 3 5 7 6 6 5 2 2 3 4 8 8 9 10 11 12 11 8 7 7 8
5 7 6 6 5 5 6 5 5 5 6 6 5 5 5 6 6 7 7 7 7 6 6 7 7 7 6 6 5 4 3 0 4 2 3 3 3 3 2 2 4 6 10 9 4 4 3 3 4 2 2 0 2 2 4 2 3 2 4 4 5 5 5 6 3 4 4 4 6 4 4 3 5 8 4 6 9 10 11 10 9 10 12 13 10 6 6 7
6 8 7 5 6 6 6 5 5 5 5 5 5 5 6 6 7 7 7 8 8 7 7 7 8 7 5 4 3 2 3 5 8 6 7 6 6 5 2 3 4 6 11 10 5 4 3 4 2 4 4 1 3 4 4 1 2 4 4 5 6 5 7 7 4 6 5 5 8 3 5 5 4 8 4 6 13 11 12 10 8 12 14 12 9 8 8 8
6 9 7 5 7 7 6 6 6 6 5 5 5 6 6 7 7 8 8 9 9 9 8 7 7 6 4 1 1 3 1 8 12 10 11 9 9 8 5 5 5 8 11 10 7 5 4 4 4 3 3 2 3 3 3 2 0 5 5 5 4 3 6 7 6 7 8 7 6 3 7 9 7 5 6 14 17 13 11 8 8 9 10 9 7 8 8 7
8 9 8 7 8 7 7 6 6 6 6 6 6 6 7 8 8 9 10 10 10 9 8 7 6 5 3 1 4 2 4 8 9 9 9 9 9 9 7 6 7 9 10 8 6 5 4 4 4 3 4 3 3 3 2 2 2 5 5 3 3 5 6 6 7 9 8 5 2 3 12 12 5 3 6 14 16 13 7 4 7 7 8 9 6 6 7 7
9 9 9 8 8 8 7 6 6 6 6 6 6 7 8 8 9 10 10 11 11 10 9 6 5 3 4 3 5 1 6 5 5 7 6 7 9 9 8 6 7 10 8 5 5 5 3 4 3 4 5 2 2 2 0 3 3 4 3 4 5 6 7 4 7 11 7 6 4 5 12 11 3 1 4 10 12 9 5 5 7 5 8 9 7 7 9 10
9 9 8 9 9 8 7 6 5 5 5 5 6 7 8 9 9 10 11 11 11 9 8 5 4 3 4 4 5 4 6 5 6 5 4 7 7 7 7 6 6 9 7 4 4 4 3 5 4 5 2 1 1 2 3 3 2 1 2 7 7 7 8 6 8 10 4 5 5 7 8 8 2 2 7 12 12 7 7 9 6 4 6 6 6 8 9 10
10 9 9 10 9 7 7 6 5 4 5 5 6 6 7 9 9 10 11 10 10 9 7 5 3 5 5 3 5 9 8 6 5 3 4 5 5 6 6 5 5 6 7 4 4 3 3 5 6 4 3 2 1 2 3 2 0 1 3 5 9 7 8 10 8 5 1 3 4 8 3 7 1 7 12 13 10 8 8 11 6 5 4 5 8 8 8 10
11 11 11 10 8 7 6 5 4 4 4 4 5 6 7 9 9 10 10 9 9 8 6 4 4 7 5 1 6 11 12 9 7 5 4 5 5 5 5 5 5 5 6 5 4 5 4 3 5 4 3 4 1 2 0 2 2 3 2 1 6 6 7 9 3 1 2 3 5 7 2 7 7 10 13 11 7 7 10 9 6 6 5 8 8 8 8 11
12 12 11 10 8 7 5 4 3 3 4 5 6 7 8 8 9 9 8 8 7 6 4 3 6 7 4 3 5 6 10 11 9 8 6 6 5 5 6 6 5 5 4 4 5 4 4 2 4 3 1 3 1 2 3 5 3 3 2 1 3 2 6 8 3 1 4 2 6 6 2 6 9 11 12 10 4 3 8 8 7 7 7 8 7 8 8 9
12 11 11 9 7 6 4 3 3 3 4 5 6 7 8 9 9 8 7 6 5 2 1 4 8 6 0 5 6 4 6 8 10 10 8 7 6 5 7 8 6 4 3 3 4 4 3 2 3 2 1 1 2 4 4 4 3 2 1 3 3 2 5 10 7 3 3 4 4 6 2 6 8 11 12 8 4 2 6 7 7 8 8 8 6 7 7 7
12 12 11 8 6 5 4 3 3 3 5 6 7 7 8 8 7 5 5 3 3 4 5 4 6 4 1 3 2 1 4 6 8 10 8 8 7 5 6 7 5 5 4 3 4 3 3 3 2 1 1 1 3 4 4 4 4 2 1 4 3 3 3 7 8 2 3 2 2 3 2 4 6 9 11 8 6 7 7 7 7 8 7 8 6 6 6 7
13 12 10 7 6 6 4 3 3 4 5 7 7 7 8 8 5 3 3 3 5 6 6 3 3 1 2 2 1 2 4 6 7 9 9 8 7 7 7 6 4 5 5 4 4 2 2 3 1 0 2 2 3 5 3 2 4 3 1 3 4 4 3 3 6 5 4 3 1 2 2 6 8 9 13 11 7 7 8 6 7 8 7 7 6 7 7 8
13 11 9 6 5 5 4 3 3 4 6 7 7 8 8 6 2 1 2 5 5 5 4 2 3 1 3 2 2 3 2 5 7 9 10 8 8 8 6 4 5 7 5 4 2 2 2 2 2 1 3 2 3 5 2 5 5 4 4 3 4 3 4 5 5 5 6 5 3 5 6 8 10 10 11 10 7 6 6 4 8 7 7 7 7 7 7 8
11 9 7 6 5 5 4 3 4 5 7 7 7 7 5 3 1 1 2 3 3 2 0 2 3 2 3 3 2 2 3 6 7 7 9 8 9 8 5 5 6 6 4 1 2 0 2 3 4 1 2 3 5 7 9 9 7 7 5 3 3 4 5 6 6 5 3 5 6 7 7 7 9 10 9 8 6 6 5 7 8 6 7 6 7 7 7 8
9 8 7 6 6 6 5 4 3 4 7 8 7 5 1 2 2 1 1 2 4 5 2 4 6 3 4 3 2 5 4 5 4 4 9 9 9 8 3 4 5 4 2 4 2 1 3 3 2 5 7 8 10 11 11 8 4 3 3 3 4 5 6 6 6 6 2 2 6 5 4 6 9 9 8 7 7 9 7 8 8 6 7 6 7 7 7 8
9 8 7 7 7 6 5 5 3 3 6 7 7 3 1 2 1 1 2 3 8 10 7 7 10 8 8 3 6 8 5 1 1 2 8 9 9 8 1 2 4 1 2 4 2 1 3 5 7 10 11 10 9 8 7 5 3 3 3 4 6 5 6 7 6 6 2 0 5 3 3 8 10 6 7 7 9 10 7 7 7 7 7 6 7 7 7 6
8 8 7 7 8 6 6 4 2 4 5 5 3 1 3 2 2 1 1 2 8 9 10 11 9 10 11 8 8 8 2 1 3 3 8 7 6 5 2 4 4 3 2 3 3 1 1 3 11 13 9 5 4 3 5 5 4 3 2 2 5 4 4 7 6 4 2 1 5 4 4 8 8 4 7 8 9 7 7 8 6 6 8 6 6 6 6 6
9 8 7 8 8 6 5 3 2 5 5 3 1 3 4 3 3 2 3 0 6 5 6 8 7 7 8 8 9 9 4 5 4 4 9 8 3 4 4 5 5 3 3 4 5 4 3 6 12 11 5 4 5 4 5 3 2 3 3 3 5 4 1 4 5 4 3 1 3 3 3 7 4 5 7 7 7 7 8 9 7 7 8 7 6 5 6 7
8 7 7 8 9 6 4 3 4 5 3 3 2 3 4 3 4 3 1 0 4 5 5 6 5 5 5 4 8 10 5 4 3 4 10 11 4 3 4 5 6 4 4 8 9 7 6 7 6 3 6 7 7 6 4 3 3 4 6 6 5 4 5 6 3 4 4 4 2 3 4 5 2 3 3 4 6 6 6 7 8 7 6 7 7 7 7 7
7 6 6 8 9 5 2 5 5 3 3 3 3 3 4 3 3 4 1 1 3 5 4 4 3 3 4 3 7 8 2 2 2 3 9 10 5 3 2 3 4 5 7 7 7 6 8 7 2 4 4 7 6 7 5 6 3 4 5 9 9 7 7 5 2 4 4 4 3 4 4 5 4 1 4 3 4 5 5 6 7 6 6 6 6 7 6 7
9 8 6 7 8 4 1 4 3 4 3 3 5 4 3 3 3 4 2 3 3 4 1 2 2 3 4 2 3 5 2 2 2 1 5 6 4 3 2 2 1 5 7 4 3 2 6 7 5 6 5 6 6 6 5 7 4 3 5 7 8 5 4 2 2 3 0 4 4 3 2 5 6 4 5 5 4 5 4 6 6 5 5 5 5 5 5 6
11 11 9 7 7 7 3 2 4 5 2 4 7 6 3 2 3 4 2 3 4 3 3 1 1 2 4 1 1 5 3 3 1 2 2 3 1 2 2 3 1 3 3 3 0 3 4 4 4 7 6 5 5 5 6 8 7 3 4 5 7 6 4 3 3 2 3 3 5 3 2 3 5 5 5 7 6 5 4 5 5 4 5 5 4 5 5 5
14 13 13 11 10 11 8 3 3 4 2 4 8 7 4 3 3 1 2 1 3 2 3 1 1 2 1 1 2 4 2 1 4 1 1 3 1 2 1 4 5 4 1 5 3 5 2 3 5 8 6 5 6 5 7 10 5 6 5 7 6 5 5 4 4 1 1 1 5 4 0 2 5 5 1 5 5 4 4 4 4 4 4 4 4 5 5 5
16 15 15 15 13 13 13 10 7 6 4 7 8 5 4 4 2 3 2 3 1 2 1 0 2 1 1 2 3 3 0 2 2 2 2 3 1 3 2 5 5 3 2 3 5 5 1 4 6 7 5 6 5 3 6 9 4 5 6 6 4 4 4 4 4 2 2 1 5 5 3 2 5 5 2 2 3 5 5 4 4 4 3 3 4 5 5 5
20 18 17 15 14 15 14 14 16 12 7 8 6 4 5 4 2 2 4 4 1 1 1 1 1 1 3 4 1 1 1 1 0 1 3 2 3 5 1 2 4 3 2 3 2 4 3 3 2 4 4 6 4 2 1 4 4 4 6 5 5 5 4 3 2 4 2 3 6 8 8 5 3 5 3 3 3 5 8 5 4 5 4 3 4 4 4 4
22 21 21 19 19 18 12 10 20 20 12 10 7 4 5 3 1 4 5 2 1 1 2 1 1 2 5 6 2 1 2 1 1 2 2 1 2 4 2 1 2 3 3 4 3 5 5 3 2 2 2 4 6 4 3 3 4 6 5 4 3 4 4 4 4 4 1 5 6 5 6 5 4 5 3 2 5 2 9 10 9 8 6 4 4 4 4 4
23 23 23 22 22 21 15 9 13 18 19 16 9 4 3 2 3 4 3 0 1 2 3 3 2 3 5 4 3 4 3 1 1 3 3 3 2 2 2 3 3 2 2 4 2 4 4 4 4 4 2 3 6 3 3 5 5 5 4 5 3 2 3 2 2 0 3 6 5 3 5 2 6 5 3 4 7 4 3 9 11 11 8 6 5 4 3 3
24 23 22 22 22 22 22 16 10 13 20 18 9 3 2 4 5 4 3 2 2 1 2 3 2 4 5 3 2 4 3 2 3 3 2 4 3 4 4 4 4 2 1 4 2 2 3 5 3 1 3 2 7 5 2 1 1 4 5 4 4 2 1 3 3 2 4 5 3 2 2 2 4 2 4 4 5 4 5 8 8 8 8 7 5 4 4 3
18 19 19 19 22 22 23 19 12 12 19 16 7 3 3 5 3 3 5 3 0 1 2 2 3 3 4 2 3 4 2 2 5 4 2 3 3 3 4 4 4 2 2 2 2 3 2 5 3 4 3 3 7 6 5 5 3 4 4 5 5 4 4 4 4 3 4 4 3 2 1 2 3 1 4 4 4 4 6 8 7 7 6 5 5 5 4 3
11 12 13 15 20 21 20 18 13 14 19 12 4 2 5 5 1 1 5 3 1 1 2 2 3 3 2 2 2 3 1 2 3 4 2 3 4 3 3 5 6 4 3 2 2 2 2 5 6 3 1 6 7 3 5 6 2 2 3 4 3 4 5 2 3 5 3 3 3 2 2 2 3 1 3 3 4 5 6 6 7 6 5 5 5 4 4 4
9 9 8 11 14 15 17 17 16 19 17 7 3 4 4 3 2 3 3 2 3 4 4 2 3 3 3 2 2 3 1 0 3 3 2 2 3 4 4 4 6 8 6 4 3 2 2 5 5 3 1 4 6 4 3 3 2 2 2 3 4 4 6 3 2 1 3 1 4 2 2 2 0 1 2 3 4 4 4 4 6 5 5 5 5 5 4 4
11 9 7 7 10 12 13 15 18 19 10 3 5 6 2 1 3 3 1 0 2 4 6 3 2 4 4 2 3 3 1 1 2 2 2 2 2 4 5 4 4 10 10 6 3 3 4 4 5 1 2 4 2 5 4 3 3 5 3 5 3 2 4 3 1 3 3 2 4 1 3 3 2 2 1 1 2 4 4 4 5 5 5 6 6 5 5 5
9 6 4 6 10 13 11 13 16 12 3 1 6 5 2 2 3 1 2 1 2 3 4 4 3 3 4 3 3 3 3 2 2 3 2 2 3 3 5 3 2 5 8 5 2 2 4 2 6 1 3 2 2 5 2 5 3 4 3 3 3 2 0 1 2 1 1 3 4 3 3 3 4 4 3 6 9 9 7 6 7 8 8 7 6 5 5 5
6 3 1 3 11 13 12 13 12 6 2 2 5 4 2 2 4 2 2 2 1 2 2 3 2 1 2 4 3 2 4 4 4 3 2 2 3 2 4 2 1 1 3 5 4 2 3 2 4 2 1 1 3 3 3 2 2 2 0 1 2 2 3 2 2 3 2 3 4 5 5 3 5 5 8 12 12 12 11 9 10 10 8 7 6 6 5 5
4 2 2 3 11 13 14 12 7 3 2 3 3 2 1 2 4 5 4 3 1 1 2 3 2 2 3 3 3 2 3 3 5 3 3 3 3 2 1 1 2 1 2 2 4 1 2 2 3 3 3 1 1 3 6 6 3 2 1 1 1 1 1 1 1 2 3 3 3 4 6 5 4 2 7 9 8 12 14 12 9 7 7 7 7 6 6 5
4 1 2 4 13 17 15 9 3 2 4 4 4 4 3 2 3 4 4 4 2 0 1 2 3 4 4 3 3 3 3 3 4 4 3 3 3 3 0 1 1 2 2 2 3 2 2 3 3 2 1 3 4 4 4 6 6 5 5 4 4 3 2 1 4 1 3 3 3 3 7 6 3 1 3 5 4 9 11 9 8 8 9 9 7 7 7 6
3 1 1 7 17 19 12 5 3 3 4 5 4 4 4 3 3 3 4 4 3 1 1 0 3 4 4 3 3 3 3 3 4 4 3 4 5 4 1 2 2 0 2 3 3 2 3 3 2 3 3 4 4 3 0 3 4 5 3 3 3 3 4 4 6 3 2 2 1 2 6 5 1 2 4 3 6 9 9 10 10 10 9 8 7 7 6 6
2 2 3 9 18 17 7 4 4 4 5 3 3 4 4 3 3 3 4 4 3 2 2 2 3 4 4 3 3 3 3 2 4 4 3 4 4 2 1 1 2 3 2 1 1 0 2 3 2 3 3 2 3 4 4 4 4 3 1 1 3 3 3 4 4 2 2 3 1 2 5 3 0 3 2 2 5 7 8 9 9 7 6 6 7 7 6 6
2 2 2 7 17 14 5 5 6 6 6 3 4 7 4 2 4 5 5 5 4 3 3 3 3 4 5 3 4 5 5 3 4 5 4 4 3 1 3 2 2 2 1 1 2 1 0 1 2 0 3 3 3 3 4 4 1 1 2 1 1 3 4 3 1 2 1 4 5 4 5 3 1 3 3 3 5 6 6 7 6 6 6 7 6 6 6 6
3 1 2 4 12 10 3 3 4 5 7 6 6 8 5 3 4 5 7 7 5 5 4 3 4 5 4 4 4 5 6 5 4 3 2 2 2 2 4 5 0 4 3 2 2 3 2 2 3 3 4 6 4 3 2 2 1 1 1 2 1 4 5 3 2 2 2 2 3 5 5 4 3 2 2 1 3 6 5 5 5 5 6 6 6 6 6 6
3 1 1 2 4 5 2 1 2 2 5 6 5 6 8 7 3 2 7 7 5 4 2 1 3 4 4 5 4 4 6 6 4 2 2 3 3 3 2 4 2 3 2 1 3 3 3 2 3 5 7 7 5 5 4 2 3 2 2 2 3 4 4 4 2 3 2 1 3 7 6 5 7 4 4 5 5 6 6 6 5 6 6 6 6 6 6 6
2 2 4 3 2 4 4 2 3 2 2 5 4 3 8 11 5 1 5 5 4 5 2 2 3 5 5 6 5 5 5 5 5 4 3 3 2 3 3 2 3 2 2 2 2 3 4 2 4 5 6 4 4 4 3 3 3 4 4 5 7 6 5 5 4 4 3 1 7 10 5 5 9 9 6 7 7 6 7 7 7 7 7 6 6 6 7 7
1 1 2 2 1 4 6 6 6 5 4 5 3 1 5 10 9 6 4 1 1 5 5 3 5 8 8 7 5 4 4 5 6 5 3 2 1 1 2 2 2 3 3 2 2 3 5 3 3 3 3 2 5 4 3 2 1 3 5 8 10 9 7 7 6 6 7 7 10 10 6 6 10 11 6 7 8 8 8 8 8 7 6 6 7 8 8 8
2 0 2 1 1 3 5 7 8 9 9 7 4 3 4 7 9 8 3 2 2 5 7 7 7 8 8 8 7 6 6 6 6 4 4 3 3 3 1 1 2 2 3 2 2 2 3 2 1 2 2 2 2 2 4 4 3 4 7 11 11 11 10 6 7 10 10 9 11 11 10 12 13 10 5 6 8 8 6 5 5 6 7 7 8 9 9 8
2 1 1 1 1 1 2 4 8 9 9 8 8 7 4 4 7 5 2 4 6 4 6 10 10 8 9 10 10 10 9 8 7 6 6 5 4 3 3 3 2 2 2 1 0 1 1 1 1 3 1 4 4 2 3 3 4 6 9 12 11 8 8 8 10 9 6 8 12 11 10 13 12 5 3 4 4 3 3 5 6 7 8 9 9 9 9 8
1 1 1 2 1 2 2 3 6 7 7 7 9 8 6 8 8 4 2 4 5 4 6 11 11 6 6 9 11 12 9 8 8 8 7 6 5 4 3 3 5 5 2 2 1 0 1 1 1 5 2 5 4 1 0 2 2 6 12 15 12 8 9 9 7 6 8 10 11 8 7 11 10 3 2 3 3 5 6 8 7 6 6 9 10 9 9 8
2 3 1 4 1 2 3 3 5 7 6 6 8 8 8 9 6 5 5 3 2 2 3 6 8 4 3 8 11 10 7 7 6 5 4 4 4 4 3 3 5 6 5 4 2 0 3 4 1 3 2 4 4 0 2 6 5 7 11 11 11 11 11 9 7 9 11 8 6 7 8 9 7 4 5 5 5 6 7 6 6 5 6 8 8 9 8 8
Wind_Direction
307 315 317 313 300 295 291 288 292 296 295 292 292 295 296 300 302 307 313 314 318 322 328 330 333 334 332 334 332 332 330 326 323 316 295 293 282 218 255 296 277 214 178 173 169 158 128 110 153 97 72 48 13 353 352 347 72 53 78 108 227 197 209 192 190 189 157 269 277 309 305 179 279 300 304 329 352 309 299 293 263 267 268 248 256 281 301 256
303 310 316 320 308 308 308 293 291 293 293 296 297 294 295 301 304 311 315 318 321 320 325 328 330 331 332 335 334 335 331 326 321 312 307 306 167 165 200 295 271 201 178 183 186 171 130 148 223 95 53 32 333 1 3 322 85 92 117 137 226 202 216 199 193 203 177 251 271 295 273 202 247 266 332 290 290 319 315 293 285 281 277 273 274 276 274 223
310 316 319 324 315 309 309 305 305 297 293 301 305 300 299 302 306 313 316 320 320 320 323 324 328 330 333 334 336 339 331 328 323 315 12 96 124 125 125 146 245 178 186 190 194 188 152 195 184 126 55 16 295 22 46 322 150 164 125 159 241 217 234 248 233 229 218 229 271 288 272 250 260 235 216 263 294 307 283 276 286 289 282 269 268 269 242 206
316 320 318 317 312 303 301 308 313 309 306 311 313 310 311 310 313 318 320 319 317 320 321 322 328 330 333 335 340 338 335 344 323 275 100 116 114 107 116 162 169 170 187 181 179 199 220 260 166 127 78 355 310 25 145 249 224 181 139 188 234 205 231 264 256 248 234 215 274 293 317 302 280 215 181 102 321 298 268 253 247 266 280 276 264 266 237 204
333 329 323 315 315 313 306 303 308 313 313 318 320 319 323 318 318 322 323 320 317 321 320 321 323 326 331 334 339 337 355 23 282 250 144 133 118 119 129 154 164 178 186 180 177 189 213 131 99 76 71 204 319 38 240 233 147 169 213 212 228 178 221 263 256 267 288 325 316 309 307 292 300 305 207 178 246 268 268 257 241 246 266 276 274 267 240 210
343 336 329 324 325 316 308 305 306 310 312 319 323 324 325 317 316 319 319 316 316 319 316 315 314 318 322 323 329 339 38 60 256 206 183 185 168 171 159 175 174 188 192 190 192 174 176 81 80 103 86 85 212 193 245 252 145 218 269 248 245 222 231 266 273 304 332 324 295 286 281 302 343 307 240 198 231 243 260 261 256 259 263 275 285 272 247 233
338 334 326 325 323 310 307 307 305 307 312 316 320 322 319 313 313 312 312 311 311 312 312 311 309 309 313 313 305 358 86 241 256 236 248 258 241 240 234 220 199 197 195 192 188 158 133 88 122 161 108 13 219 212 247 301 170 206 261 276 264 240 232 258 285 295 293 266 260 265 310 312 293 294 309 268 260 250 258 264 262 267 273 283 287 271 261 258
331 326 318 319 315 308 304 302 302 303 307 311 313 317 316 314 313 311 312 311 311 312 313 310 305 306 308 283 224 358 350 252 262 255 260 265 246 240 234 230 216 204 194 192 187 160 140 136 181 164 115 237 191 207 267 334 308 199 232 268 281 268 247 263 278 273 271 260 259 293 295 276 244 267 302 279 275 270 264 271 273 278 292 290 278 281 294 297
321 320 314 311 307 305 300 293 294 298 302 308 312 316 318 318 316 316 314 311 313 312 315 314 303 293 268 193 97 10 270 252 269 267 264 260 239 230 231 230 214 203 190 197 190 154 160 179 203 183 176 212 176 216 305 22 279 214 209 246 278 286 277 285 287 273 274 261 234 289 283 280 258 236 274 266 264 271 283 291 284 303 310 298 304 333 358 358
311 315 311 301 297 297 293 286 290 297 301 305 313 320 321 319 316 315 312 312 314 312 318 317 297 267 221 160 102 217 263 260 276 277 267 242 225 222 227 220 207 202 186 185 187 168 175 199 202 151 160 164 167 229 47 135 223 225 228 276 274 289 290 279 277 278 289 274 224 230 269 282 293 173 265 269 256 267 313 296 287 322 301 303 349 24 40 38
306 307 301 292 288 288 283 280 290 298 300 305 315 319 318 318 315 313 313 312 312 314 317 313 286 236 189 153 143 216 262 268 270 275 245 223 217 219 214 203 198 200 193 161 168 191 203 210 168 115 157 183 164 278 282 199 206 242 321 313 301 320 309 274 267 277 300 288 211 175 254 292 350 188 240 259 264 292 325 296 315 9 297 315 30 50 52 45
300 296 288 286 288 287 279 275 288 296 297 306 312 316 317 315 313 312 311 309 310 312 310 302 254 197 161 143 210 232 251 258 259 251 211 199 186 196 193 194 200 202 209 175 140 156 171 199 150 130 226 167 114 307 270 228 17 331 33 329 305 346 321 281 271 270 216 260 178 137 292 309 251 221 240 252 271 315 319 299 341 35 335 16 57 61 50 39
294 291 283 285 289 284 275 272 283 290 294 305 309 313 314 312 313 310 309 309 310 311 302 280 221 185 158 219 238 238 247 250 253 248 214 177 163 191 200 207 210 209 218 187 144 118 112 175 152 161 193 127 216 267 193 3 359 313 18 341 303 352 315 280 275 8 326 240 163 133 287 289 258 247 254 264 289 322 307 300 8 38 31 54 65 61 50 37
286 285 285 288 286 279 277 276 279 283 297 307 310 314 313 314 314 311 313 315 313 309 289 230 191 171 161 251 261 256 249 243 242 240 226 204 188 208 212 199 193 198 210 177 148 110 86 105 120 121 138 127 231 306 3 358 357 311 327 327 319 324 279 288 291 10 328 284 146 138 202 261 273 275 273 280 299 302 288 305 27 45 49 64 61 57 52 39
277 281 288 285 275 276 279 272 274 284 298 306 313 316 315 315 316 319 326 327 330 326 184 164 168 155 103 273 269 272 242 227 229 229 226 214 199 209 209 193 183 173 165 144 131 104 85 84 89 104 278 300 53 40 1 344 351 7 308 303 328 212 264 305 294 195 230 284 105 124 207 265 273 280 283 297 337 325 289 320 35 60 62 63 54 52 50 37
267 277 285 277 267 274 272 264 277 287 300 309 313 316 316 316 316 324 336 351 45 96 111 132 162 149 332 274 258 246 216 212 221 217 208 200 199 199 176 168 168 154 139 130 129 116 91 72 54 135 213 309 92 82 37 357 332 348 202 252 273 228 265 316 304 246 184 257 57 128 222 278 277 283 290 304 343 344 318 335 47 76 66 62 56 49 46 34
264 272 274 266 263 269 264 265 285 296 311 314 313 316 318 316 303 308 358 84 101 96 95 114 157 146 287 245 249 265 213 204 203 191 186 189 193 179 148 131 128 131 115 100 122 111 55 53 50 222 34 46 118 98 55 320 289 308 291 227 248 234 230 290 298 321 28 71 2 285 243 257 274 289 293 302 338 345 320 344 66 88 72 67 62 53 47 38
262 265 258 246 251 258 255 267 290 309 318 319 321 317 317 321 287 237 107 119 102 75 62 68 124 152 276 236 218 241 190 185 182 174 181 179 175 167 140 119 124 117 89 55 66 67 24 19 60 357 2 54 128 115 160 237 232 246 250 237 268 263 241 258 269 299 357 19 324 302 282 265 278 284 287 303 335 330 315 40 88 89 77 73 62 57 50 44
258 254 238 229 234 242 242 258 288 316 322 321 325 317 316 356 14 172 135 130 115 100 190 216 165 161 257 257 227 188 138 155 161 173 181 167 164 162 121 103 108 101 94 56 313 26 107 49 59 146 250 200 188 179 200 221 213 223 238 230 259 273 261 257 257 269 342 350 300 287 283 281 287 288 301 322 346 344 351 81 91 83 79 72 64 60 51 50
248 235 225 226 222 227 234 250 283 324 330 327 336 339 347 44 21 326 300 171 208 215 198 197 198 224 278 276 157 154 143 144 156 180 177 169 162 152 109 72 66 58 125 158 220 265 122 126 170 210 220 211 209 209 213 227 226 235 265 274 262 261 271 268 265 282 359 347 275 268 288 297 289 299 332 345 18 22 31 88 88 76 76 65 65 61 53 55
235 221 216 221 217 218 230 248 284 333 333 330 340 358 140 148 114 290 287 269 249 241 245 229 213 237 256 222 158 163 147 135 268 184 170 172 155 150 178 73 86 19 222 155 142 22 109 162 217 224 220 218 220 214 214 241 259 252 252 272 278 260 265 266 260 289 348 184 264 298 340 298 291 326 4 14 45 33 26 76 80 78 77 64 64 57 53 55
223 219 217 222 216 215 234 252 310 330 321 320 330 89 144 147 147 172 157 292 276 245 239 247 234 244 253 240 210 194 161 238 266 232 178 164 146 175 198 109 146 208 183 122 101 60 126 205 239 235 220 227 260 203 180 217 223 219 223 247 269 262 282 285 275 297 338 193 267 319 338 285 291 24 37 36 59 46 29 54 60 72 76 64 60 55 56 55
218 220 226 225 213 218 243 261 314 309 293 273 245 147 145 134 134 132 121 221 290 258 221 236 230 231 246 248 220 202 217 222 231 242 185 157 143 192 158 143 184 182 139 169 166 160 185 235 245 236 192 191 256 234 174 192 217 210 217 223 252 251 260 279 286 309 318 301 277 311 315 278 289 66 59 47 69 69 53 57 53 58 69 66 62 55 54 57
211 215 221 218 212 222 260 292 300 289 253 208 170 145 138 124 134 141 117 162 282 270 233 220 211 208 222 228 190 185 213 213 198 228 182 161 146 154 162 173 174 168 193 199 186 187 219 241 239 191 155 179 228 252 202 189 249 241 221 218 234 235 213 224 274 320 328 349 350 9 340 294 288 93 89 63 71 70 59 64 58 50 60 65 63 57 50 52
210 215 214 215 215 219 283 297 284 222 184 182 173 158 127 112 140 153 119 359 282 287 275 216 189 192 188 158 170 175 187 210 207 214 178 168 155 137 188 178 150 199 219 201 189 214 247 244 167 120 156 172 199 246 216 175 221 280 235 213 214 219 216 219 336 4 2 337 325 37 9 295 316 26 163 131 69 64 52 59 62 48 46 53 57 55 48 48
216 206 205 220 210 190 271 286 233 174 183 213 187 166 140 129 167 175 117 29 286 268 265 185 181 182 169 136 160 141 97 258 247 120 153 167 165 130 174 197 122 209 210 192 181 215 245 235 194 174 171 153 178 240 231 166 156 275 246 202 189 181 175 159 64 47 39 261 279 56 113 259 313 318 200 162 93 84 70 60 64 52 46 52 55 53 49 47
218 202 198 209 194 181 203 248 197 183 208 215 186 171 159 149 187 194 107 13 287 214 138 219 293 150 165 187 161 133 156 238 108 70 110 139 167 93 148 220 178 201 192 123 184 238 215 217 207 196 184 170 192 240 224 163 140 236 240 136 131 138 152 156 115 137 217 260 315 1 149 238 292 280 208 155 121 101 93 78 71 63 56 58 58 55 53 48
221 209 200 206 202 197 207 221 203 205 211 171 165 165 158 165 200 154 87 276 277 102 112 266 57 99 128 43 71 117 196 195 110 249 348 96 115 71 144 219 177 199 201 121 205 258 195 187 203 182 175 197 212 223 189 156 154 236 199 124 123 141 157 152 124 185 268 350 310 301 176 240 264 272 244 146 156 159 147 132 102 86 74 69 67 59 50 46
224 216 209 213 217 218 224 235 229 218 203 156 144 147 148 162 181 70 97 226 259 72 93 87 105 43 31 59 41 66 36 17 123 242 1 76 56 64 165 210 156 188 269 131 210 257 262 225 200 152 159 206 210 214 177 160 184 220 154 112 68 76 95 97 115 123 39 10 251 235 189 211 264 280 288 154 210 202 164 145 131 119 101 86 75 67 57 46
226 222 217 216 223 227 227 233 231 221 196 169 154 122 127 133 103 113 204 223 95 87 136 106 158 152 97 107 25 10 100 356 5 23 30 52 9 31 122 189 97 115 325 5 267 257 308 306 193 148 183 193 155 105 139 155 155 130 101 69 27 28 47 50 80 91 60 278 248 219 195 190 268 280 224 185 249 188 155 147 152 141 121 106 83 70 66 52
226 224 220 216 221 223 212 225 232 224 212 201 188 128 114 110 114 193 215 217 70 98 124 129 197 140 131 139 163 174 124 3 358 77 78 98 31 30 51 79 67 66 359 335 309 305 326 326 260 245 205 140 106 78 20 21 81 96 84 69 35 343 14 24 1 46 112 254 264 226 178 165 223 264 269 303 318 201 159 162 162 153 143 127 101 84 78 67
226 228 227 224 224 219 212 228 237 227 220 209 189 145 117 163 209 207 217 196 170 190 158 171 194 163 160 148 158 174 151 159 191 121 131 143 152 181 171 172 163 81 343 257 269 336 310 253 268 304 269 145 112 85 4 4 39 83 94 87 79 319 345 351 304 323 214 253 266 186 132 160 228 249 314 335 336 330 145 149 153 149 145 138 123 111 95 81
228 231 231 228 222 215 219 231 234 217 208 193 171 126 114 200 220 188 174 194 197 176 126 131 147 159 155 137 179 186 149 171 188 165 149 129 148 233 242 203 176 134 207 210 208 337 295 293 309 315 286 186 140 153 206 275 117 136 142 128 130 161 201 256 262 268 261 270 271 189 139 274 257 291 338 336 334 342 92 115 132 135 135 138 135 129 116 105
227 229 228 224 216 214 219 222 220 199 186 174 152 104 148 213 244 159 180 206 165 62 49 77 106 133 148 162 203 179 148 205 180 150 141 124 135 247 249 221 196 146 121 150 183 187 223 298 245 183 244 189 167 184 167 139 149 173 160 138 148 162 167 210 225 213 252 280 292 263 218 214 215 288 322 335 352 27 87 104 111 112 122 132 131 136 138 136
211 214 217 213 209 213 211 209 207 185 173 161 114 114 185 212 261 155 193 191 117 81 37 35 80 118 188 283 247 186 157 229 166 130 152 163 170 201 205 205 190 160 132 157 221 181 177 264 253 245 250 164 173 203 131 110 116 203 131 116 165 189 159 177 210 174 185 290 292 240 222 200 175 247 324 11 34 56 82 103 114 121 135 137 139 153 157 159
171 172 187 195 199 202 200 198 189 176 172 150 114 186 210 207 169 183 204 152 158 150 126 81 73 137 219 305 262 233 355 74 144 135 205 200 205 208 210 226 191 174 168 167 207 181 148 269 281 339 324 181 181 185 131 126 189 158 125 177 213 180 128 117 274 40 83 260 268 212 226 288 100 248 335 47 68 80 94 115 128 145 153 152 167 174 172 173
155 154 166 184 190 189 187 186 177 172 174 148 180 201 204 205 190 186 210 143 149 132 138 165 172 174 199 226 230 219 172 119 140 145 212 229 234 201 203 250 197 185 193 185 221 208 160 265 281 185 205 249 192 131 78 18 134 129 175 210 196 96 82 97 224 346 42 239 272 226 206 234 205 231 311 81 154 177 181 167 158 172 177 178 185 184 185 180
145 145 173 186 188 185 176 172 169 160 130 184 213 220 169 209 243 178 140 128 69 79 139 187 196 180 181 187 223 201 162 179 168 162 196 235 242 177 168 221 209 202 211 188 223 239 142 241 284 224 172 283 18 99 60 346 59 123 196 199 110 119 252 80 153 230 230 241 277 283 252 230 201 197 191 203 205 194 189 187 186 192 192 189 191 192 194 179
127 106 317 191 177 178 168 161 158 136 77 215 228 238 192 227 267 243 167 146 75 90 158 212 195 166 181 177 191 177 168 185 173 171 185 193 229 193 145 188 199 251 243 171 185 237 124 174 279 313 176 282 27 98 184 257 10 52 47 358 49 150 171 166 166 172 191 234 270 293 307 275 229 196 181 202 203 181 179 192 195 196 192 190 190 188 189 179
109 90 312 186 166 168 158 148 141 131 172 199 200 217 243 275 260 249 218 186 192 114 185 215 182 174 205 195 192 177 176 191 174 184 214 191 221 248 128 139 172 114 17 143 180 207 101 184 245 304 322 155 166 208 194 187 174 140 157 217 253 144 124 243 229 135 147 190 232 275 285 264 250 189 187 215 207 177 182 187 186 194 196 199 199 188 186 180
88 86 281 164 160 161 150 144 165 179 192 209 195 205 233 227 228 246 226 188 198 297 136 191 202 199 198 199 208 181 168 190 183 191 222 211 225 239 186 49 181 172 69 117 188 205 170 186 195 228 255 193 222 255 212 188 175 163 179 198 194 169 127 242 263 205 145 189 198 230 267 268 263 224 229 242 200 175 180 172 170 195 200 199 201 192 186 178
106 175 199 152 162 164 154 169 204 169 209 221 195 204 211 196 207 219 199 176 187 182 84 169 224 213 205 201 197 176 165 194 207 203 224 229 221 217 204 31 8 306 113 145 208 205 132 128 176 212 213 206 246 303 263 171 142 137 171 179 163 152 136 185 240 234 183 258 205 189 258 271 257 256 261 231 177 166 169 169 176 194 199 194 195 191 183 180
136 168 142 152 169 170 167 215 199 183 222 206 169 213 207 182 213 210 189 185 184 157 144 202 211 210 223 202 170 179 172 179 205 202 220 241 228 227 283 37 44 30 61 120 266 48 91 110 177 254 305 332 325 338 7 40 79 111 259 108 132 157 145 173 213 181 164 251 236 208 249 248 217 290 293 141 148 153 167 180 183 185 191 193 192 188 183 181
133 129 78 164 181 184 192 216 203 207 218 186 188 217 213 194 208 197 194 198 185 157 166 198 203 210 220 187 163 190 188 186 213 206 204 218 220 322 353 12 102 135 161 197 195 171 111 138 133 124 311 322 335 347 355 355 37 163 279 320 95 107 100 104 149 119 176 220 205 221 248 242 300 343 7 79 132 161 178 185 184 183 189 197 195 188 184 177
115 95 6 181 193 203 222 207 197 214 215 207 212 212 209 232 220 194 197 201 189 169 172 199 192 186 192 173 165 193 199 205 220 214 195 221 272 334 356 354 53 171 198 220 170 142 151 177 139 144 217 241 240 218 233 261 238 176 283 277 148 124 130 131 143 184 220 213 199 226 248 273 317 17 9 339 170 187 209 209 209 212 205 203 198 187 180 171
126 149 165 164 207 229 249 143 140 189 208 209 219 216 211 222 251 197 196 208 211 188 191 253 168 160 183 178 171 198 213 215 215 207 185 196 265 288 314 341 23 146 175 118 100 97 114 189 194 184 218 235 213 205 209 157 144 199 248 230 210 190 152 129 147 203 200 46 270 246 229 254 278 258 220 236 218 207 224 225 223 231 225 214 202 187 177 170
129 162 172 159 189 222 229 218 175 165 184 202 210 216 213 217 234 248 204 214 209 182 197 262 180 186 198 175 176 211 210 207 209 208 189 174 240 285 298 357 41 32 15 72 75 85 112 225 230 196 225 230 158 177 195 126 161 209 229 245 239 219 162 159 207 212 156 178 260 252 216 207 258 256 216 207 220 226 231 228 226 231 225 208 190 179 174 169
161 155 191 170 154 203 213 209 196 189 190 201 207 196 210 211 211 214 210 226 221 187 200 239 213 207 197 163 172 212 193 195 210 199 173 150 162 257 329 347 345 355 22 37 8 90 127 231 241 171 222 200 123 137 162 137 214 230 235 252 255 247 218 201 218 209 190 221 254 263 253 228 251 262 233 193 207 219 224 222 222 228 220 190 175 179 179 176
157 168 268 329 49 212 216 193 187 202 205 200 220 229 205 201 207 213 191 132 243 217 202 222 225 209 198 179 184 208 199 195 212 204 172 167 169 160 157 279 283 3 55 65 350 72 128 216 219 139 251 277 106 179 189 169 205 242 245 245 247 254 250 234 233 226 216 232 252 262 266 259 258 261 244 212 209 210 225 228 216 218 212 190 181 185 184 181
141 172 243 18 30 243 241 180 180 207 214 204 221 227 206 204 214 215 182 185 218 222 198 217 224 201 198 199 199 215 211 187 195 207 178 168 190 191 185 205 188 77 59 102 274 338 99 178 115 90 355 311 322 278 207 176 198 236 256 253 248 257 260 246 241 239 232 241 248 250 258 264 264 247 205 228 205 169 215 234 225 221 206 188 186 188 185 183
247 316 109 110 163 196 196 180 174 197 213 209 220 218 209 224 216 189 235 228 211 209 202 209 213 201 199 203 204 216 210 173 179 194 172 164 185 186 183 190 159 138 147 163 169 331 109 163 36 70 86 282 307 343 325 36 18 277 268 259 249 243 246 244 233 218 218 231 243 246 245 257 265 258 236 239 170 166 207 217 219 223 198 183 184 184 183 184
237 294 98 111 148 222 188 169 170 196 211 204 213 214 214 226 209 180 237 278 113 202 233 199 191 179 187 206 212 215 191 148 143 140 122 113 102 94 102 131 129 138 160 162 147 131 134 141 128 98 135 271 297 339 51 43 20 285 265 247 234 232 239 250 250 237 229 221 225 234 233 244 257 275 280 256 201 199 214 207 203 208 194 188 186 181 184 187